User: anonymous   Login
Location: Newark
(43.0000°N, 1.6781°W)
Time: 06:07:17
(UTC+00:00)
Language:

OBJECT D - Orbit

View from above orbital plane
View from above orbital plane
View from above satellite
View from above satellite

Ground track
Ground track

The orbit data is extracted from the following two-line orbital elements,

1 58499U 23187D   24197.84420272  .00002388  00000-0  26631-3 0  9990
2 58499  98.1264 280.4410 0037774 344.0212  15.9809 14.87543227 33371
Epoch (UTC): 15 July 2024 20:15:39
Eccentricity: 0.0037774
inclination: 98.1264°
perigee height: 579 km
apogee height: 632 km
right ascension of ascending node: 280.4410°
argument of perigee: 344.0212°
revolutions per day: 14.87543227
mean anomaly at epoch: 15.9809°
orbit number at epoch: 3337

The dashed part of the orbit path shows where the satellite is in the earth's shadow,  

DLR